Weather in Paihia

New Zealand     35°16′52″S   174°05′30″E
temp.,
°C
wind,
m/s
gust,
m/s
humid.,
%
clouds,
%
prec.,
mm/h
press.,
hPa
HPBL,
m
12 may, wed
wed1200:00+18nw31091100 0.3 1021454
03:00+17wnw29956 1.1 1020325
06:00+16w289653 1.1 1021257
09:00+17wsw1493100 0.0 1021172
12:00+21wsw2569100 0.1 1021830
15:00+22wsw246097 0.1 10201054
18:00+16sw258582 0.1 1021109
21:00+14ssw259674 0.0 1022133
13 may, thu
thu1300:00+14ssw269279 0.0 1023272
03:00+13s239519 0.0 1022130
06:00+12sw239622 0.0 102289
09:00+14ssw258314 0.0 1022274
12:00+15se467685 0.4 1022918
15:00+14se357498 0.1 1021971
18:00+13sse2482100 0.2 1021333
21:00+12sse258994 0.1 1022274
14 may, fri
fri1400:00+9s239254 0.1 1022112
03:00+7ssw229357 0.0 102079
06:00+7ssw1192100 0.0 102059
09:00+10sse017622 0.0 1020132
12:00+14nne2458100 0.0 1018805
15:00+15nne345586 0.0 1015908
18:00+12ne2581100 0.0 1014265
21:00+15nne388399 0.0 1012624
15 may, sat
sat1500:00+16n41091100 0.4 1010727
03:00+18n51398100 7.0 1006962
06:00+18nw4119697 13.1 1006780
09:00+18w39938 0.1 1007597
12:00+21wsw37661 0.1 1008850
15:00+21wsw25630 0.0 1008940
18:00+16wsw24910 0.0 101182
21:00+14sw229614 0.0 101264
16 may, sun
sun1600:00+13sw12959 0.0 101342
03:00+12sw119510 0.0 101336
06:00+12wnw009618 0.0 101337
09:00+15nnw029225 0.0 1014171
12:00+19nnw4671100 0.1 10121102
15:00+20nnw376946 0.1 10101025
18:00+16nnw310874 0.2 1010676
21:00+17nw412818 0.1 10101049